Location: *
(46.3500°N, 10.9000°E)
Time: 23:30:43
(UTC+00:00)

Vanguard 2 - Pass Details

Date: 26 April 2021
Orbit: 552 x 2938 km, 32.9° (Epoch: 12 May)

Event Time Altitude Azimuth Distance (km) Brightness Sun altitude
Rises 09:39:40 0° 230° (SW) 6,661 12.3 51.7°
Reaches altitude 10° 09:44:24 10° 224° (SW) 5,738 12.2 52.3°
Maximum altitude 10:00:11 41° 163° (SSE) 3,598 12.9 53.8°
Drops below altitude 10° 10:13:10 10° 100° (E) 4,775 12.0 54.9°
Sets 10:16:39 0° 93° (E) 5,488 12.1 55.1°
